Location: Grandview
(34.8900°N, 117.1058°W)
Time: 08:15:51
(UTC-08:00)

Vanguard 2 Rocket - Visible Passes

Search period start: 12 December 2017 00:00
Search period end: 22 December 2017 00:00
Orbit: 555 x 3326 km, 32.9° (Epoch: 11 December)

Date Brightness Start Highest point End Pass type
(mag) Time Alt. Az. Time Alt. Az. Time Alt. Az.
12 Dec 10.3 01:49:16 23° SSE 01:49:16 23° SSE 01:53:18 10° SE visible
12 Dec 10.2 03:55:05 20° SW 03:55:05 20° SW 04:02:07 10° S visible
12 Dec 9.3 17:33:26 10° SSW 17:43:08 41° SE 17:55:15 17° E visible
12 Dec 9.1 19:45:14 10° WSW 19:58:39 76° SSE 20:01:03 69° ESE visible
12 Dec 10.1 21:59:55 10° W 22:06:51 35° W 22:06:51 35° W visible
13 Dec 10.8 00:53:13 11° SE 00:53:13 11° SE 00:53:37 10° SE visible
13 Dec 10.1 02:59:01 24° S 02:59:01 24° S 03:04:59 10° S visible
13 Dec 9.0 18:45:58 10° SW 18:57:30 66° SSE 19:04:50 41° E visible
13 Dec 9.4 20:59:37 10° W 21:10:38 62° WSW 21:10:38 62° WSW visible
13 Dec 10.8 23:15:20 10° W 23:16:26 13° W 23:16:26 13° W visible
14 Dec 10.4 02:02:55 20° SSE 02:02:55 20° SSE 02:06:34 10° SSE visible
14 Dec 10.5 04:08:44 11° SW 04:08:44 11° SW 04:10:50 10° SW visible
14 Dec 9.0 17:47:12 10° SW 17:56:58 54° SSE 18:08:36 21° E visible
14 Dec 9.0 19:59:46 10° WSW 20:13:10 82° S 20:14:24 78° SE visible
14 Dec 10.2 22:14:35 10° W 22:20:12 30° W 22:20:12 30° W visible
15 Dec 10.8 01:06:47 11° SE 01:06:47 11° SE 01:07:17 10° SE visible
15 Dec 10.4 03:12:35 16° SSW 03:12:35 16° SSW 03:16:35 10° S visible
15 Dec 9.1 16:48:58 10° SSW 16:57:06 39° SE 17:10:27 10° E visible
15 Dec 8.9 19:00:20 10° WSW 19:11:51 76° SSE 19:18:10 48° E visible
15 Dec 9.5 21:14:17 10° W 21:23:58 54° W 21:23:58 54° W visible
16 Dec10.900:10:36SE00:10:36SE23:29:46Wvisible
16 Dec 10.5 02:16:24 16° S 02:16:24 16° S 02:19:07 10° SSE visible
16 Dec 8.8 18:01:21 10° WSW 18:11:06 65° SSE 18:21:56 25° E visible
16 Dec 9.0 20:14:24 10° W 20:27:44 84° S 20:27:44 84° S visible
16 Dec 10.4 22:29:15 10° W 22:33:32 25° W 22:33:32 25° W visible
17 Dec 10.8 01:20:10 11° SSE 01:20:10 11° SSE 01:20:23 10° SSE visible
17 Dec 8.8 17:02:47 10° SW 17:11:00 52° SSE 17:25:18 10° E visible
17 Dec 8.8 19:14:54 10° WSW 19:26:23 82° S 19:31:30 54° E visible
17 Dec 9.7 21:28:58 10° W 21:37:18 46° W 21:37:18 46° W visible
18 Dec11.000:23:53SE00:23:53SE23:43:06WNWvisible
18 Dec 10.7 02:29:41 11° S 02:29:41 11° S 02:30:30 10° S visible
18 Dec 8.7 18:15:46 10° WSW 18:25:30 75° SSE 18:35:17 29° E visible
18 Dec 9.0 20:29:05 10° W 20:41:05 77° WSW 20:41:05 77° WSW visible
18 Dec 10.5 22:43:58 10° W 22:46:53 19° W 22:46:53 19° W visible
19 Dec 8.6 17:16:59 10° WSW 17:25:11 64° SSE 17:39:04 12° E visible
19 Dec 8.8 19:29:33 10° W 19:41:01 83° S 19:44:52 62° ESE visible
19 Dec 9.8 21:43:39 10° W 21:50:41 39° W 21:50:41 39° W visible
20 Dec11.200:36:55SSE00:36:55SSE23:56:29WNWvisible
20 Dec 8.6 18:30:21 10° W 18:40:04 81° S 18:48:41 34° E visible
20 Dec 9.1 20:43:46 10° W 20:54:30 67° WSW 20:54:30 67° WSW visible
20 Dec 10.7 22:58:49 10° W 23:00:18 14° W 23:00:18 14° W visible
21 Dec 8.4 17:31:26 10° WSW 17:39:37 75° SSE 17:52:32 15° E visible
21 Dec 8.8 19:44:14 10° W 19:55:39 81° S 19:58:21 68° ESE visible
21 Dec 10.0 21:58:23 10° W 22:04:10 32° W 22:04:10 32° W visible
